GOES 17 (43226 NORAD) Tracking and Keplerian Element Data

This shows tracking and keplerian element data for the satellite.

Feedback or suggestion? Click here.




ElementValue
Catalog43226
NameGOES 17
Epoch Orbit387
Epoch Day78.63117368
Epoch Year2019
RAAN11.8604
Inclination0.0459
Eccentricity0.0003462
Argument of Perigee7.4175
Mean Anonmoly247.5937
Mean Motion1.00271192
Decay Rate7.3E-07
L11 43226U 18022A 19078.63117368 .00000073 00000-0 00000-0 0 9990
L22 43226 0.0459 11.8604 0003462 7.4175 247.5937 1.00271192 3874

Live tracking and technical data element details for GOES 17 (NORAD 43226). GOES 17 can be tracked NOW for your location showing map with azimuth and elevation plus other details from your city location.

Track the satellite on the map from your city or location and see movement details for azimuth, elevation, latitude, longitude, range, height, and movement on the map or in text.







IsCatalogInMostPopularTable: catalog: 43226, numindb: 291
Update: records affected: 1



GetName: 43226 GOES 17

Hit Count: updated at: Thu, 21 Mar 2019 01:12:58 GMT